BREEZE-M DEB, 34248

Orbit data source: Space-Track

BREEZE-M DEB, 34248 is space debris in HEO originally from a launch on Tue, 28 Feb 2006 UTC launched from the Tyuratam Missile And Space Complex (TTMTR). Debris objects in space refer to the collection of defunct objects orbiting the Earth. Examples of debris include non-operational satellites, rocket bodies, and fragments generated from explosions, collisions, or faulty payload assembly.

Loading next visibility...
Identifier
34248, 2006-006BP
Orbit
HEO
Country
Flag of CISCIS
Related business
Manufacturer
Khrunichev
Mission
Spacecraft
Bus & Motor
Unknown
Mass
Unknown
Launch date (UTC)
2006-02-28 (20 years ago)
Launch vehicle
Unknown
Launch site
Tyuratam Missile And Space Complex (TTMTR)
Object type
Payload
Rocket body
Debris
Shape & HBR
Unknown shape, 0.1 m
Radar Cross Section
Medium (>0.1 m² and <1 m²)

Expand to show TLE details & history
Last TLE update: 2 weeks ago

TLE from 2 weeks ago
0 BREEZE-M DEB
1 34248U 06006BP  26151.44325939  .00008358  00000-0  42343-2 0  9999
2 34248  51.6804 219.4624 4637448 150.1157 247.3112  6.10736883 43033
Epoch: 2026-05-31T10:38Z
TLE epoch observation values (Epoch: 2026-05-31T10:38:17.611Z)
Latitude
-0.00003°
Longitude
170.94506°
Altitude
10,217.247 km
Speed
4.064 km/s
True Right ascension
14h 37m 51s
True Declination
0° 00' 00"
Sunlit
Object was in daylight at epoch
Visualization orbit readout
Latitude
Unknown
Longitude
Unknown
Altitude
Unknown
Speed
Unknown
Apparent Right ascension
Unknown
Apparent Declination
Unknown
Sunlit
N/A
Visualization observer readout
Local Sidereal Time
17:11:10
Azimuth
Unknown
Elevation
Unknown
Doppler factor
Unknown
Orbital elements
Apogee altitude
12,127.807 km
Perigee altitude
401.671 km
Semi-major axis
12,642.876 km
Eccentricity
0.46374
Inclination
51.6804°
RAAN
219.4624°
Arg. of periapsis
150.1157°
True anomaly
209.94031°
Mean anomaly
247.3112°
Eccentric anomaly
227.66856°
Mean motion
1.52677 °/min
Orbital period
235.79 mins
BSTAR
0.0042343
Loading maneuver chart data...
Computing Atmospheric mass density...
Loading historical data...
Loading historical data...
Loading historical data...
Loading historical data...
Loading historical data...
Loading historical data...
Loading historical data...

Documentation

Showing up to 5 results
|